Morrisville, VT

2:14 PM EST on November 20, 2019 (GMT -0500)
Morrisville Stowe State

Weather History for KMVL - September, 2019

Change the Weather History Date:

Sunday, September 29, 2019

  Actual Average Record
Temperature  
Mean Temperature 48 °F 52 °F  
Max Temperature 61 °F 64 °F 76 °F (2014)
Min Temperature 36 °F 40 °F 23 °F (2000)
Degree Days  
Heating Degree Days 16 13  
Month to date heating degree days 198 225  
Since 1 July heating degree days 263 320  
Cooling Degree Days 0 0  
Month to date cooling degree days 11 13  
Year to date cooling degree days 254 260  
Moisture  
Dew Point 44 °F    
Average Humidity 76    
Maximum Humidity 97    
Minimum Humidity 47    
Precipitation  
Precipitation 0.00 in 0.11 in 1.33 in (2006)
Month to date precipitation 3.33 3.26  
Year to date precipitation 30.56 27.02  
Sea Level Pressure  
Sea Level Pressure 30.32 in    
Wind  
Wind Speed 5 mph ()    
Max Wind Speed 15 mph    
Max Gust Speed 21 mph    
Visibility 9.8 miles    
Events      
T = Trace of Precipitation, MM = Missing Value Source: Averaged Metar Reports

Daily Weather History Graph

Daily Weather History Graph

Search for Another Location

Airport or City:

Astronomy

Sep. 29, 2019 Rise Set
Actual Time 6:45 AM EDT 6:35 PM EDT
Civil Twilight 6:16 AM EDT 7:04 PM EDT
Nautical Twilight 5:42 AM EDT 7:37 PM EDT
Astronomical Twilight 5:08 AM EDT 8:12 PM EDT
Moon 7:32 AM EDT (9/29) 7:32 PM EDT (9/29)
Length of Visible Light 12h 47m
Length of Day
11h 49m
New Moon, 1% of the Moon is Illuminated
Sep 29
New Moon
Oct 5
First Quarter
Oct 13
Full
Oct 21
Last Quarter
Oct 27
New

Hourly Weather History & Observations

Time (EDT) Temp. Windchill Dew Point Humidity Pressure Visibility Wind Dir Wind Speed Gust Speed Precip Events Conditions
12:39 AM 61.0 °F - 57.9 °F 90% 30.14 in 10.0 mi Calm Calm - N/A   Overcast
12:54 AM 61.0 °F - 57.9 °F 90% 30.15 in 10.0 mi South 4.6 mph - N/A   Overcast
1:32 AM 61.0 °F - 55.9 °F 83% 30.16 in 10.0 mi North 9.2 mph 17.3 mph N/A   Overcast
1:54 AM 60.1 °F - 55.9 °F 86% 30.17 in 10.0 mi North 9.2 mph - N/A   Overcast
2:16 AM 60.1 °F - 55.9 °F 86% 30.17 in 10.0 mi NNW 4.6 mph - N/A   Overcast
2:24 AM 60.1 °F - 55.9 °F 86% 30.18 in 10.0 mi North 5.8 mph - N/A   Overcast
2:32 AM 60.1 °F - 55.0 °F 83% 30.17 in 10.0 mi NNE 6.9 mph - N/A   Overcast
2:54 AM 59.0 °F - 55.0 °F 87% 30.18 in 10.0 mi North 8.1 mph - N/A   Overcast
3:18 AM 57.0 °F - 53.1 °F 87% 30.19 in 10.0 mi NNW 13.8 mph - N/A   Overcast
3:54 AM 55.9 °F - 51.1 °F 84% 30.22 in 10.0 mi NNW 9.2 mph 19.6 mph N/A   Overcast
4:54 AM 51.1 °F - 46.0 °F 83% 30.26 in 10.0 mi Variable 3.5 mph - N/A   Overcast
5:41 AM 50.0 °F - 45.0 °F 83% 30.27 in 10.0 mi Variable 5.8 mph - N/A   Mostly Cloudy
5:54 AM 50.0 °F - 44.1 °F 80% 30.29 in 10.0 mi Variable 6.9 mph - N/A   Mostly Cloudy
6:10 AM 48.9 °F - 43.0 °F 80% 30.28 in 10.0 mi NNW 8.1 mph - N/A   Overcast
6:54 AM 48.0 °F - 43.0 °F 83% 30.34 in 10.0 mi North 8.1 mph - N/A   Overcast
7:54 AM 46.9 °F - 42.1 °F 83% 30.37 in 10.0 mi North 8.1 mph - N/A   Overcast
8:47 AM 46.9 °F - 39.9 °F 77% 30.39 in 10.0 mi NNE 5.8 mph - N/A   Scattered Clouds
8:54 AM 46.9 °F - 39.9 °F 77% 30.41 in 10.0 mi NNE 6.9 mph - N/A   Mostly Cloudy
9:01 AM 48.0 °F - 39.9 °F 74% 30.40 in 10.0 mi NNE 8.1 mph - N/A   Mostly Cloudy
9:54 AM 48.9 °F - 39.0 °F 69% 30.41 in 10.0 mi North 6.9 mph - N/A   Mostly Cloudy
10:13 AM 50.0 °F - 39.0 °F 66% 30.40 in 10.0 mi NNE 10.4 mph - N/A   Partly Cloudy
10:54 AM 53.1 °F - 39.0 °F 59% 30.41 in 10.0 mi North 8.1 mph - N/A   Mostly Cloudy
11:18 AM 53.1 °F - 39.9 °F 61% 30.41 in 10.0 mi North - - N/A   Mostly Cloudy
11:54 AM 53.1 °F - 37.9 °F 57% 30.42 in 10.0 mi WNW 4.6 mph - N/A   Scattered Clouds
12:54 PM 55.0 °F - 39.0 °F 55% 30.41 in 10.0 mi Variable 4.6 mph - N/A   Clear
1:54 PM 57.0 °F - 37.0 °F 47% 30.39 in 10.0 mi NNW 11.5 mph - N/A   Clear
2:54 PM 57.0 °F - 37.9 °F 49% 30.39 in 10.0 mi NNW 8.1 mph - N/A   Clear
3:54 PM 55.9 °F - 37.0 °F 49% 30.39 in 10.0 mi NW 8.1 mph 18.4 mph N/A   Clear
4:54 PM 54.0 °F - 37.0 °F 53% 30.38 in 10.0 mi NNW 6.9 mph - N/A   Clear
5:54 PM 52.0 °F - 39.0 °F 61% 30.37 in 10.0 mi NNW 8.1 mph - N/A   Clear
6:54 PM 48.9 °F - 39.0 °F 69% 30.39 in 10.0 mi Variable 3.5 mph - N/A   Clear
7:54 PM 45.0 °F - 39.9 °F 82% 30.42 in 10.0 mi Calm Calm - N/A   Clear
8:54 PM 43.0 °F - 39.0 °F 86% 30.44 in 10.0 mi Calm Calm - N/A   Clear
9:54 PM 39.0 °F - 37.9 °F 96% 30.44 in 10.0 mi Calm Calm - N/A   Clear
10:54 PM 37.9 °F 35.5 °F 36.0 °F 93% 30.43 in 10.0 mi SE 3.5 mph - N/A   Clear
11:54 PM 36.0 °F - 35.1 °F 97% 30.44 in 3.0 mi Calm Calm - N/A   Clear